Location: Grasslands National Park East Block
(49.0708°N, 106.5295°W)
Time: 16:00:30
(UTC-06:00)

Vanguard 1 - Pass Details

Date: 30 September 2019
Orbit: 653 x 3830 km, 34.2° (Epoch: 20 October)

Event Time Altitude Azimuth Distance (km) Brightness Sun altitude
Rises 21:22:47 0° 174° (S) 6,114 13.8 -25.5°
Enters shadow 21:24:37 - 169° (SSE) 5,962 13.7 -25.8°
Reaches altitude 10° 21:29:24 10° 154° (SSE) 5,731 - -26.5°
Maximum altitude 21:38:04 15° 125° (SE) 5,909 - -27.7°
Drops below altitude 10° 21:48:04 10° 97° (E) 6,813 - -29.1°
Sets 21:57:21 0° 80° (E) 7,976 - -30.4°
